Showing default

HAWK-12B, 64622

Orbit data source: Space-Track

HAWK-12B, 64622 is a payload satellite owned by HawkEye 360 (US) in SSO that was launched on Thu, 26 Jun 2025 UTC via an ELECTRON launch vehicle from the Rocket Lab Launch Complex (RLLC). Payload-class satellites include a variety of spacecraft equipped with specific instruments for various scientific and technological missions. These include communications satellites like Starlink; space stations such as the ISS; scientific satellites like the Hubble; Earth observation satellites from companies like Planet Labs, Umbra, and HawkEye 360; GPS; miniature CubeSats for education and research; and military/defense satellites.

Loading next visibility...
Identifier
64622, 2025-138B
Orbit
SSO
Country
Flag of USUS
Related business
Manufacturer
UTIAS-SFL
Mission
Operational Commercial Sigint
Bus & Motor
HAWK2G, Unknown motor
Mass
31 kg wet, 30 kg dry
Launch date (UTC)
2025-06-26 (1 year ago)
Launch vehicle
ELECTRON
Launch site
Rocket Lab Launch Complex (RLLC)
Object type
Payload
Rocket body
Debris
Shape & HBR
Box + 2 Pan, 1.0 m
Radar Cross Section
0.240 m², Medium (>0.1 m² and < 1m²)

Expand to show TLE details & history
Last TLE update: 22 hours ago

TLE from 22 hours ago
0 HAWK-12B
1 64622U 25138B   26170.94254116  .00003338  00000-0  16606-3 0  9996
2 64622  97.4463 173.9932 0014530 124.7392 235.5213 15.18218176 54280
Epoch: 2026-06-19T22:37Z
TLE epoch observation values (Epoch: 2026-06-19T22:37:15.556Z)
Latitude
0.00003°
Longitude
-73.4859°
Altitude
519.99 km
Speed
7.6 km/s
True Right ascension
11h 35m 58s
True Declination
0° 00' 00"
Sunlit
Object was in daylight at epoch
Visualization orbit readout
Latitude
Unknown
Longitude
Unknown
Altitude
Unknown
Speed
Unknown
Apparent Right ascension
Unknown
Apparent Declination
Unknown
Sunlit
N/A
Visualization observer readout
Local Sidereal Time
07:19:47
Azimuth
Unknown
Elevation
Unknown
Doppler factor
Unknown
Orbital elements
Apogee altitude
518.201 km
Perigee altitude
498.19 km
Semi-major axis
6,886.333 km
Eccentricity
0.00145
Inclination
97.4463°
RAAN
173.9932°
Arg. of periapsis
124.7392°
True anomaly
235.38419°
Mean anomaly
235.5213°
Eccentric anomaly
235.45273°
Mean motion
3.79805 °/min
Orbital period
94.79 mins
BSTAR
0.00016606
Loading maneuver chart data...
Computing Atmospheric mass density...
Loading historical data...
Loading historical data...
Loading historical data...
Loading historical data...
Loading historical data...
Loading historical data...
Loading historical data...

Documentation

Showing up to 5 results
|